Location: STAR School
(35.3054°N, 111.2976°W)
Time: 16:18:24
(UTC-07:00)

deb Explorer IX - Pass Details

Date: 25 May 2019
Orbit: 537 x 1115 km, 38.8° (Epoch: 19 June)

Event Time Altitude Azimuth Distance (km) Brightness Sun altitude
Exits shadow 01:31:54 10° 75° (ENE) 1,786 ? -31.4°
Drops below altitude 10° 01:31:54 10° 75° (ENE) 1,787 ? -31.4°
Sets 01:34:10 0° 73° (ENE) 2,701 ? -31.2°
